Regional Weather Roundup
Issued by NWS

Home | Current Version | Previous Version | Graphics & Text | Print | Product List | Glossary On
Versions: 1 2 3 4 5 6 7 8 9 10 11 12 13 14 15 16 17 18 19 20 21 22 23 24 25 26 27 28 29 30 31 32 33 34 35 36 37 38 39 40 41 42 43 44 45 46 47 48 49 50
903
ASUS44 KLIX 250710
RWRLA
LOUISIANA WEATHER ROUNDUP
NATIONAL WEATHER SERVICE NEW ORLEANS LA
100 AM CST SUN JAN 25 2015

NOTE: "FAIR" INDICATES FEW OR NO CLOUDS BELOW 12,000 FEET WITH NO
      SIGNIFICANT WEATHER AND/OR OBSTRUCTIONS TO VISIBILITY.
      SKY/WX - SKY CONDITION AND SIGNIFICANT WEATHER.
      TMP - AIR TEMPERATURE.    DP   - DEWPOINT TEMPERATURE.
      RH  - RELATIVE HUMIDITY.  PRES - PRESSURE.
      HX  - HEAT INDEX.         WCI  - WIND CHILL INDEX.

*  THESE STATIONS ARE NOT NWS OR FAA STATIONS AND ARE NOT UNDER
   NWS QUALITY CONTROL.

LAZ040-048-061>063-065-066-069-250800-
SOUTHEAST LOUISIANA

CITY           SKY/WX    TMP DP  RH WIND       PRES   REMARKS
N.O. AUDUBON   NOT AVBL
N.O. INTL ARPT PTCLDY    43  39  86 SW5       30.09S
N.O. LAKEFRONT CLEAR     49  42  77 SW12      30.10R
N.O. DOWNTOWN* FAIR      46  37  71 S6        30.10R
SLIDELL        CLEAR     44  39  82 CALM      30.08R
BATON ROUGE    CLEAR     41  37  86 W5        30.08R
BOOTHVILLE     CLEAR     46  42  86 W8        30.10S
BELLE CHASSE   CLEAR     45  40  82 W5        30.09S
BOGALUSA*        N/A     38  34  85 CALM      30.08F
GALLIANO*      SUNNY     41  40  95 MISG      30.10S FOG
NEW ROADS*     FAIR      43  39  87 SW5       30.07S
GONZALES*      FAIR      41  41 100 CALM      30.08S
HAMMOND*       CLEAR     39  36  87 CALM      30.10R
HOUMA*         CLEAR     42  41  96 CALM      30.09F FOG
PORT FOURCHON* SUNNY     52  46  82 W8        30.12F

$$

LAZ041-044-053-054-250800-
SOUTHWEST LOUISIANA

CITY           SKY/WX    TMP DP  RH WIND       PRES   REMARKS
LAKE CHARLES   CLEAR     43  43 100 CALM      30.06F FOG
LAFAYETTE      CLEAR     45  42  89 SW8       30.09S
PATTERSON      CLEAR     41  37  87 CALM      30.10F
SALT POINT       N/A     49  47  93 W3        30.09S
NEW IBERIA     CLEAR     43  41  93 SW5       30.10S
CHENAULT AIRPK CLEAR     47  44  88 W3        30.07F

$$

LAZ027-028-250800-
CENTRAL LOUISIANA

CITY           SKY/WX    TMP DP  RH WIND       PRES   REMARKS
FORT POLK      CLEAR     41  39  92 S5        30.03F
ALEXANDRIA INT PTCLDY    42  39  89 SW6       30.03F
ALEXANDRIA     PTCLDY    35  33  92 CALM      30.03F

$$

LAZ001-002-250800-
NORTHWEST LOUISIANA

CITY           SKY/WX    TMP DP  RH WIND       PRES   REMARKS
SHREVEPORT     PTCLDY    39  33  79 SW6       29.99F WCI  35
BARKSDALE AFB  CLEAR     35  31  85 S3        29.99F
DTN SHREVEPORT CLEAR     42  32  67 SW5       29.99F

$$

LAZ014-016-250800-
NORTHEAST LOUISIANA

CITY           SKY/WX    TMP DP  RH WIND       PRES   REMARKS
MONROE         CLEAR     43  36  76 S3        30.00F
TALLULAH       CLEAR     44  35  70 SW3       30.00F

$$




USA.gov is the U.S. government's official web portal to all federal, state and local government web resources and services.